Location: Caltech
(34.1382°N, 118.1253°W)
Time: 03:27:08
(UTC-07:00)

Cosmos 44 Rocket - Visible Passes

Search period start: 02 October 2014 00:00
Search period end: 12 October 2014 00:00
Orbit: 656 x 737 km, 65.1° (Epoch: 01 October)

Date Brightness Start Highest point End Pass type
(mag) Time Alt. Az. Time Alt. Az. Time Alt. Az.
03 Oct 5.7 05:31:43 10° N 05:35:19 21° NE 05:38:53 10° ESE visible
03 Oct 5.2 19:52:12 10° SSE 19:53:26 15° SSE 19:53:26 15° SSE visible
04 Oct 3.4 06:13:08 10° NNW 06:17:50 76° ENE 06:22:29 10° SSE visible
04 Oct 3.8 20:32:59 10° SSW 20:36:43 50° SSW 20:36:43 50° SSW visible
05 Oct 5.2 05:14:23 10° N 05:18:27 28° NE 05:22:28 10° ESE visible
05 Oct 4.1 19:34:35 10° S 19:38:57 30° ESE 19:41:00 22° ENE visible
05 Oct 5.2 21:16:08 10° WSW 21:19:53 28° WNW 21:19:53 28° WNW visible
06 Oct 6.2 04:17:00 10° NNE 04:18:45 12° NE 04:20:28 10° ENE visible
06 Oct 3.1 05:56:09 10° NNW 06:00:50 77° WSW 06:05:29 10° SSE visible
06 Oct 3.5 20:16:01 10° SW 20:21:02 73° WNW 20:23:57 25° NNE visible
07 Oct 4.6 04:57:10 10° NNW 05:01:33 38° ENE 05:05:53 10° SE visible
07 Oct 3.7 19:17:11 10° S 19:21:54 41° ESE 19:26:32 10° NE visible
07 Oct 5.6 20:59:44 10° WSW 21:03:34 22° NW 21:06:35 13° N visible
08 Oct 5.9 04:00:20 14° NNE 04:01:57 16° NE 04:04:45 10° E visible
08 Oct 3.2 05:39:14 10° NW 05:43:49 54° WSW 05:48:21 10° SSE visible
08 Oct 4.1 19:59:11 10° SW 20:04:05 53° WNW 20:08:54 10° NNE visible
09 Oct 3.9 04:43:29 42° NNE 04:44:36 52° ENE 04:49:09 10° SE visible
09 Oct 4.9 06:23:24 10° WNW 06:25:39 13° WSW 06:27:53 10° SW visible
09 Oct 3.4 18:59:56 10° SSW 19:04:51 57° ESE 19:09:42 10° NE visible
09 Oct 6.0 20:43:33 10° W 20:46:44 17° NW 20:49:52 10° N visible
10 Oct 6.1 03:47:50 13° E 03:47:50 13° E 03:48:36 10° E visible
10 Oct 3.6 05:26:43 38° WSW 05:26:46 38° WSW 05:31:04 10° S visible
10 Oct 4.7 19:42:28 10° SW 19:47:08 39° WNW 19:51:45 10° NNE visible
11 Oct 5.3 04:31:01 18° SE 04:31:01 18° SE 04:32:17 10° SE visible
11 Oct 3.3 18:42:49 10° SSW 18:47:50 79° ESE 18:52:46 10° NNE visible
11 Oct 6.2 20:27:44 10° WNW 20:29:55 13° NW 20:32:06 10° NNW visible
